Location: Beaurevoir
(49.9971°N, 3.3085°E)
Time: 02:58:04
(UTC+00:00)

MSX - Pass Details

Date: 23 May 2024
Orbit: 893 x 906 km, 99.0° (Epoch: 17 June)

Event Time Altitude Azimuth Distance (km) Brightness Sun altitude
Rises 02:02:49 0° 14° (NNE) 3,527 8.4 -12.9°
Reaches altitude 10° 02:05:14 10° 13° (NNE) 2,581 7.4 -12.7°
Maximum altitude 02:10:58 78° 289° (WNW) 920 3.8 -12.2°
Enters shadow 02:15:48 15° 204° (SSW) 2,226 5.3 -11.7°
